RH
68 69 72 75 80 84 85 82 72 66 65 62 59 57 53 50 48 47 46 48 49 49 50 50 50 50 49 46 38 29 25 28 27 27 24 16 13 11 9 11 12 15 19 21 20 18 16 15 16 18 20 21 20 20 19 19 19 18 19 18 18 17 17 16 16 16 15 15 14 14 13 13 11 10 9 8 7 7 7 7 6 6 6 6 6 6 6 6 5 5 5 5 5 5 5 5 5
70 72 73 74 77 81 82 79 71 64 65 63 58 55 51 49 48 46 47 50 51 52 52 52 51 50 45 37 30 22 19 22 22 20 18 13 10 9 11 14 15 17 19 21 18 16 16 17 20 22 22 21 20 20 20 20 20 20 20 19 19 18 18 17 17 17 16 16 15 14 14 12 11 10 9 8 7 7 7 7 6 6 6 6 6 6 6 6 6 6 6 6 6 6 6 6 5
70 74 76 74 72 76 75 72 68 62 62 61 55 50 49 48 47 50 52 52 51 51 52 52 49 44 38 33 28 21 18 19 19 18 15 11 9 10 14 17 17 18 19 18 16 17 18 21 23 23 22 21 21 21 22 22 22 22 22 22 21 20 20 19 19 18 17 16 16 15 14 12 10 9 8 8 7 7 7 7 7 7 7 7 7 7 7 7 7 7 7 7 7 7 6 6 7
64 71 73 68 63 67 68 66 64 61 58 56 51 45 44 44 45 50 51 48 46 46 47 46 42 38 34 28 23 18 16 17 17 15 12 9 11 13 17 18 17 18 18 17 17 19 21 24 24 22 22 22 23 23 24 24 24 24 24 24 23 22 21 21 20 19 18 17 16 14 13 11 10 9 8 8 7 7 7 7 7 7 7 7 7 7 7 8 7 7 7 7 7 7 8 8 8
47 57 60 59 57 59 62 61 62 61 53 50 48 41 39 39 40 45 47 46 45 44 42 42 39 36 31 21 17 15 13 14 13 11 10 11 14 16 17 17 17 18 18 18 19 22 24 25 23 22 22 23 24 24 25 25 25 26 25 26 25 25 23 22 21 20 19 17 16 13 12 11 10 9 8 8 8 8 7 8 7 7 7 7 8 7 8 8 8 8 7 8 8 8 9 10 10
25 35 41 49 54 55 57 57 58 56 42 40 40 32 33 33 37 43 45 45 43 42 40 38 35 32 27 17 13 12 12 11 10 10 12 14 16 17 17 17 17 18 19 19 21 24 25 24 22 22 23 24 24 25 26 26 27 27 27 27 27 27 25 24 22 21 19 17 15 13 12 11 10 10 9 9 8 8 8 8 8 8 7 7 7 7 8 7 7 8 8 9 9 10 11 12 13
19 27 36 43 50 49 51 53 50 46 33 32 34 28 31 36 41 43 43 42 39 38 33 27 20 20 19 12 11 11 11 10 10 12 15 17 17 16 16 16 17 18 20 21 23 25 26 23 22 22 23 24 24 25 26 26 27 28 29 29 29 28 27 26 24 22 19 17 14 13 12 11 11 10 10 9 9 9 9 8 8 8 7 7 7 7 7 7 8 8 9 10 11 12 13 15 15
28 37 44 41 49 47 44 46 42 42 32 28 29 26 30 35 37 36 37 36 36 36 27 16 10 12 12 9 10 10 10 10 11 14 17 19 16 15 16 16 17 19 21 23 24 26 26 23 22 23 24 24 24 24 25 26 27 29 30 31 31 31 29 27 25 23 20 18 15 14 13 12 11 11 11 10 10 10 9 9 8 8 7 7 6 6 7 7 8 8 9 10 12 14 15 16 17
40 45 48 38 45 47 40 39 33 32 26 25 31 31 34 35 34 33 34 35 37 33 19 11 7 9 9 8 9 9 10 11 13 15 17 17 15 15 15 16 18 21 23 24 26 27 26 23 22 23 23 23 23 24 24 25 26 28 29 30 31 32 32 30 28 25 22 20 18 16 15 14 13 13 12 12 11 10 10 9 8 8 8 7 6 6 7 7 8 9 10 11 13 14 15 17 17
42 43 52 40 38 42 36 30 23 23 25 32 38 36 36 35 36 35 34 33 31 22 10 7 6 7 8 8 8 9 11 12 15 17 17 15 15 15 16 17 19 22 24 26 27 27 26 24 23 22 22 22 23 24 24 25 26 26 27 28 29 31 32 32 31 28 26 23 22 20 19 18 17 16 15 14 13 12 11 10 9 9 8 7 7 7 7 8 8 9 11 12 13 15 16 17 17
38 41 50 42 36 36 30 25 23 29 35 40 38 34 32 31 32 30 26 22 18 13 8 7 7 8 8 8 9 11 13 14 17 17 16 15 15 16 16 18 20 23 25 27 28 27 26 25 24 22 21 21 21 22 23 24 24 24 24 25 26 28 30 32 33 32 30 28 26 25 24 23 22 22 21 19 18 16 14 12 12 10 10 9 8 8 8 9 9 11 12 13 14 15 16 17 17
38 42 45 40 36 31 26 23 21 26 33 34 31 29 28 26 25 22 18 14 12 11 9 8 9 9 9 9 11 13 14 16 18 16 16 16 16 16 17 20 22 24 26 27 28 27 26 25 24 22 21 20 20 20 20 21 20 20 21 21 23 24 26 28 30 32 32 32 31 29 29 28 28 28 27 27 26 25 22 20 18 16 14 13 12 11 11 11 11 12 12 13 13 14 15 15 16
36 42 45 39 32 27 25 24 19 21 24 23 23 22 22 22 20 18 16 12 12 11 10 10 10 10 10 11 12 14 16 18 17 16 17 17 16 17 19 21 23 25 26 27 28 28 26 24 23 22 21 20 20 19 19 19 18 18 18 19 19 20 22 23 25 27 29 30 31 31 31 30 31 31 31 33 33 33 32 30 27 24 21 19 18 16 15 14 13 14 13 13 13 13 14 14 15
30 41 43 37 31 27 25 22 19 18 14 14 18 20 22 22 21 19 15 12 11 11 11 11 11 11 11 12 14 16 16 17 16 16 17 16 17 18 20 21 23 24 26 27 28 27 26 23 22 21 21 20 20 19 19 19 18 18 18 18 18 18 19 20 21 22 23 25 26 27 28 28 28 28 29 31 34 36 38 38 36 32 28 25 22 19 18 16 16 16 15 15 14 14 15 15 16
22 33 34 29 23 19 17 15 13 12 11 16 20 22 24 24 23 21 16 13 12 12 12 11 12 12 12 14 16 17 17 16 15 16 17 17 18 19 21 21 22 24 25 27 27 26 25 23 22 21 21 20 21 20 20 19 19 19 18 17 17 17 17 17 18 19 20 20 22 22 23 23 23 23 23 25 28 31 36 39 41 39 37 32 28 23 20 19 18 16 14 14 15 16 17 17 16
12 16 17 15 11 9 9 9 11 15 18 22 24 25 26 24 23 20 15 13 12 12 12 12 12 13 14 15 16 17 18 17 16 16 17 17 18 19 20 21 22 23 25 26 26 25 23 23 22 22 22 21 21 21 20 19 19 19 18 18 17 17 16 16 16 17 17 18 18 19 19 19 18 18 18 20 22 25 29 34 39 42 42 40 36 32 28 25 22 20 19 18 18 18 17 16 14
7 8 9 8 6 6 7 9 14 18 21 22 24 26 25 23 19 16 13 12 12 13 13 13 13 14 15 16 17 18 17 17 17 17 18 18 18 20 20 21 22 23 24 25 24 23 21 21 21 21 21 21 21 20 20 19 19 18 18 18 18 17 17 16 16 16 16 16 16 17 17 17 16 15 15 16 18 21 25 29 34 40 43 44 43 40 37 34 31 30 29 28 27 24 20 17 13
7 8 8 8 7 7 8 10 13 16 17 20 23 24 23 19 14 13 13 12 13 13 12 13 14 15 16 16 17 18 17 17 16 16 17 18 18 19 21 22 22 23 24 24 22 20 19 19 19 20 21 21 21 21 20 20 19 18 17 17 17 17 17 17 16 17 16 15 15 16 16 16 15 14 14 15 16 19 22 27 31 37 42 46 46 44 43 41 39 37 36 34 32 29 24 19 15
8 9 8 7 8 8 9 10 11 13 14 16 18 19 17 14 14 14 13 13 13 11 11 14 15 15 16 16 16 16 16 15 15 16 16 17 17 18 20 22 22 23 23 23 21 19 18 18 19 19 20 21 22 22 22 21 21 19 18 18 17 17 17 17 17 18 18 17 16 16 16 16 15 14 14 15 17 19 22 26 31 37 42 45 47 47 45 43 41 39 38 37 34 31 26 20 15
9 10 10 8 9 9 9 10 11 12 14 14 14 14 14 14 16 15 13 13 11 10 12 15 15 14 14 15 14 13 14 14 14 14 15 16 17 18 19 20 22 23 23 22 20 18 18 18 18 19 20 21 23 24 24 24 22 20 20 18 17 18 17 17 17 19 20 19 18 17 17 17 16 14 14 16 19 22 25 29 33 38 42 45 47 47 45 42 40 39 37 36 33 29 25 19 14
8 9 10 9 10 10 10 12 13 15 15 15 14 15 15 15 15 14 14 12 10 11 13 14 13 12 13 14 12 12 12 13 14 14 14 15 16 18 18 19 21 22 22 21 19 18 19 18 19 20 20 20 22 24 25 24 22 20 19 18 18 19 19 19 19 21 22 21 21 20 20 20 17 15 17 20 24 27 30 33 36 40 42 44 45 44 41 39 37 35 34 33 30 27 22 17 13
9 9 10 10 10 11 13 15 15 15 15 15 16 16 15 15 14 13 13 11 10 11 11 11 11 11 11 12 12 11 11 12 13 14 15 15 16 18 19 20 22 23 22 20 19 19 19 20 19 17 16 17 19 22 24 23 20 18 17 18 19 20 20 20 21 23 24 25 25 23 24 23 21 20 24 27 30 32 34 37 39 40 41 42 41 39 36 34 33 32 31 29 27 24 20 16 13
12 11 11 12 13 14 16 17 17 17 16 16 16 15 14 14 14 13 11 10 10 11 12 11 11 11 11 12 12 11 11 12 13 14 15 16 17 18 19 21 22 23 23 21 19 20 21 19 15 12 12 14 17 20 21 20 18 16 17 18 20 21 21 20 22 23 24 27 28 27 28 28 27 27 31 34 35 36 38 39 40 41 41 39 37 35 33 31 31 30 28 26 24 21 18 15 13
13 13 14 15 16 16 17 16 16 16 15 15 15 14 14 17 15 11 10 11 11 12 12 12 12 13 13 13 13 14 14 12 13 14 16 17 17 18 20 21 22 24 23 21 21 22 20 15 12 11 13 15 17 19 19 18 18 17 17 19 21 22 21 21 22 22 24 28 30 30 32 34 33 35 38 40 39 39 39 40 40 41 40 38 35 33 31 30 29 28 26 24 22 19 16 15 13
15 16 16 17 16 15 14 14 15 15 15 16 15 13 17 20 15 9 10 11 11 12 12 12 14 14 12 13 15 16 16 16 15 16 18 18 18 20 20 20 21 23 22 22 23 22 18 14 13 14 17 18 19 19 19 19 20 20 19 19 22 23 23 24 22 21 25 29 32 33 35 38 39 41 44 44 42 41 40 40 40 40 38 36 34 31 29 29 28 26 25 23 21 19 16 15 13
17 18 16 15 14 13 14 15 18 17 15 19 16 12 17 19 14 8 10 11 11 11 10 11 14 13 12 13 15 17 18 18 17 18 20 20 20 19 19 21 23 23 22 23 23 21 18 16 15 18 22 24 24 24 23 23 22 23 23 23 23 24 26 25 23 22 25 30 35 37 39 43 45 47 49 48 46 43 42 40 39 39 37 35 32 30 29 28 27 26 25 23 21 19 17 16 14
16 15 14 16 16 16 19 17 18 17 16 20 15 9 12 15 13 10 10 12 11 11 9 10 11 11 11 12 14 17 18 17 17 20 22 21 21 20 21 23 24 24 24 23 23 21 20 20 21 23 24 25 26 28 29 29 27 27 28 26 24 25 26 25 24 24 26 30 35 38 42 47 49 53 54 53 50 46 44 42 40 39 38 35 32 31 29 29 27 26 25 24 22 20 18 16 15
14 13 17 23 20 18 20 15 13 14 15 17 14 8 10 13 12 10 8 9 10 10 8 8 9 10 11 11 12 16 19 19 21 22 22 23 23 23 24 25 25 25 25 24 23 23 24 26 26 22 21 20 21 26 30 31 30 29 30 28 25 24 24 24 25 25 27 31 34 37 43 48 53 58 59 58 55 50 46 43 41 41 39 36 33 32 30 29 28 26 25 24 23 21 19 17 15
17 19 21 21 16 13 14 11 10 13 14 17 18 12 7 9 8 6 7 7 9 10 8 8 9 11 12 11 12 16 21 25 28 28 26 27 28 28 27 27 28 26 25 25 25 25 27 30 29 25 23 18 16 19 23 26 28 29 28 26 23 21 21 22 24 25 27 29 31 35 42 49 56 61 63 62 60 55 51 46 43 43 41 37 34 33 31 29 28 27 26 25 24 22 19 16 14
19 21 17 12 8 8 11 12 12 14 15 15 20 17 6 4 5 6 11 12 12 11 10 11 11 12 13 12 14 17 23 28 31 32 32 32 33 33 31 31 31 28 27 27 27 28 31 35 34 31 28 19 14 15 17 21 24 25 24 21 20 20 20 21 22 24 25 27 29 34 41 50 57 62 65 65 63 61 56 50 47 47 44 39 36 34 32 30 29 28 28 27 25 23 20 16 12
12 13 12 10 10 8 10 16 18 19 17 13 21 26 10 3 5 6 12 19 19 13 11 13 13 15 14 12 15 17 21 28 31 33 34 34 35 36 35 33 33 32 29 28 30 32 36 41 35 30 27 19 14 15 16 18 20 21 20 19 20 20 20 21 22 24 24 25 27 31 39 47 52 58 63 65 65 65 61 54 50 50 47 42 39 36 33 31 30 29 29 28 26 24 20 15 11
10 12 11 11 12 10 8 14 21 23 20 13 21 28 13 6 10 8 14 20 18 14 14 17 17 18 15 12 13 14 16 24 30 32 32 34 37 38 36 34 34 33 30 31 34 36 40 42 32 26 23 17 16 16 17 18 19 19 19 20 20 20 21 21 23 25 25 26 26 30 38 43 47 53 57 61 65 67 65 58 52 52 50 46 42 38 35 33 31 30 29 29 27 24 19 14 11
15 16 13 13 12 11 6 7 16 20 17 12 18 24 14 12 15 14 17 18 17 17 17 19 20 19 16 12 10 10 13 20 29 33 33 35 36 35 33 33 33 32 32 35 37 39 44 41 27 21 19 17 17 17 18 20 21 23 23 25 25 25 25 24 24 25 26 28 29 31 37 43 48 51 53 56 62 66 69 64 56 54 54 50 45 40 36 33 32 32 30 30 28 24 19 14 10
19 15 13 13 11 10 6 5 10 13 14 13 18 22 16 14 15 13 15 15 16 16 15 20 23 21 19 15 11 9 10 14 20 24 26 27 28 30 32 34 35 35 37 39 40 44 45 34 22 19 18 18 19 19 20 22 24 26 28 30 31 31 32 32 30 29 29 29 31 34 38 44 50 53 56 57 58 63 69 70 62 57 56 54 48 41 37 34 33 33 31 30 29 24 18 13 10
23 18 14 12 11 9 7 10 10 10 13 13 19 22 16 16 16 12 12 13 13 12 15 21 21 19 20 19 16 13 12 11 13 13 14 16 19 26 33 37 38 39 40 42 44 45 37 25 21 21 20 20 21 20 21 23 27 30 33 35 35 36 38 38 38 37 36 34 34 38 40 45 50 54 61 64 61 61 67 73 69 61 59 58 51 44 38 36 35 33 32 30 27 22 16 12 9
19 17 15 13 13 8 8 13 13 15 14 13 21 21 14 18 18 15 13 14 15 14 16 17 17 18 19 20 18 15 15 14 14 14 15 16 18 24 32 37 40 41 44 45 43 36 27 22 23 22 22 22 21 21 23 27 30 34 38 42 42 43 43 43 43 42 42 40 39 40 43 47 48 53 67 74 70 65 66 73 76 69 63 62 56 46 39 37 35 32 32 31 25 18 14 11 9
13 15 14 12 13 9 8 10 11 17 16 12 20 18 15 20 20 20 18 13 15 16 17 18 19 21 19 19 18 15 15 14 14 17 19 22 24 27 31 37 41 43 43 38 33 27 24 24 24 24 24 23 23 25 28 30 32 36 42 46 48 48 48 48 49 48 47 46 43 42 44 50 52 53 69 81 80 75 70 73 82 78 69 67 61 49 40 36 34 32 32 30 24 16 11 10 9
10 13 12 9 11 7 6 8 10 17 16 12 16 13 15 19 18 24 20 10 13 17 21 22 20 20 18 16 15 14 15 15 16 18 19 22 26 30 34 39 41 41 36 31 28 27 26 26 25 25 26 26 28 28 29 29 32 38 44 48 51 51 50 50 51 52 52 51 50 46 43 52 58 56 68 84 86 85 78 74 84 86 76 72 67 53 41 35 32 32 33 29 23 16 11 9 9
9 11 10 8 9 7 4 5 8 13 10 10 13 9 13 14 12 21 18 10 17 22 22 22 20 19 18 17 16 18 20 21 22 21 22 23 26 32 36 38 38 35 32 29 29 28 27 27 26 27 28 28 28 26 25 26 30 36 41 45 50 52 52 51 50 51 54 55 54 51 44 51 62 62 71 83 87 91 88 80 85 90 84 77 72 58 41 34 31 31 33 29 22 15 10 9 9
8 8 8 7 9 11 10 6 5 9 9 12 14 7 10 12 8 13 15 13 18 23 23 22 21 20 19 20 21 23 25 26 26 26 27 28 29 32 33 33 32 31 31 30 30 30 27 26 26 26 26 25 24 24 26 30 34 39 41 43 45 48 51 52 52 52 54 55 54 52 47 50 61 67 69 73 83 95 95 89 88 89 89 84 76 64 45 33 30 30 33 29 20 14 10 9 9
6 6 6 7 8 11 13 10 6 6 8 14 19 12 5 5 8 12 15 17 19 23 24 23 22 20 19 22 24 26 29 29 31 31 31 31 31 30 30 29 28 28 29 30 29 26 23 23 24 24 24 25 27 32 36 39 42 44 44 45 44 45 47 48 50 51 53 53 53 52 49 48 55 64 66 65 79 97 98 96 93 85 89 90 81 69 48 33 29 29 32 28 19 13 10 9 9
6 6 5 7 9 7 8 13 8 5 10 16 30 37 17 0 5 14 16 17 20 23 24 23 22 21 21 22 23 24 27 27 27 27 26 26 25 24 24 23 22 21 22 24 23 21 20 21 23 24 25 29 35 41 45 46 46 46 45 45 44 44 44 44 45 47 48 50 51 52 51 49 49 56 63 63 75 94 99 100 95 85 88 92 86 74 52 33 27 29 31 28 20 13 11 9 9
7 7 6 6 9 6 6 12 8 8 16 17 32 46 29 5 2 11 17 17 20 24 23 22 22 23 23 22 21 21 21 21 21 21 20 20 20 20 21 21 20 19 19 20 20 21 22 23 25 26 26 32 41 46 49 49 47 46 45 44 44 43 43 42 42 42 43 45 47 51 53 52 50 52 60 65 75 93 99 100 97 89 90 94 89 77 56 34 26 28 30 27 19 13 11 10 9
7 6 7 5 6 6 5 10 9 9 14 16 28 38 29 16 4 6 14 14 18 24 23 22 23 24 23 21 21 20 19 19 18 17 16 17 20 21 21 23 23 23 23 22 22 23 23 26 27 24 24 36 46 50 50 49 48 48 47 46 43 41 40 40 41 41 41 41 42 47 52 53 53 54 59 66 80 95 99 100 100 95 96 97 91 80 59 35 26 28 29 26 19 13 11 11 10
6 5 6 4 5 5 5 12 10 7 14 18 25 31 28 22 6 5 14 12 15 21 20 22 24 23 23 21 21 20 19 18 16 15 17 19 22 22 23 24 24 25 26 25 25 26 26 29 28 22 25 40 50 50 50 51 52 53 51 46 42 40 39 39 39 40 40 41 43 47 52 56 57 57 60 69 84 98 99 98 101 99 100 100 92 81 62 38 28 28 29 27 20 14 12 11 10
5 4 4 3 5 3 4 13 8 8 22 20 19 27 31 27 9 3 15 15 14 18 17 21 24 23 23 22 21 21 20 18 17 19 21 21 22 23 24 25 25 26 26 27 27 28 29 30 30 24 24 37 48 49 52 54 55 56 52 45 42 40 40 41 41 42 42 43 46 52 55 58 59 57 59 68 82 94 96 97 101 99 100 100 91 81 63 41 30 28 29 28 20 15 12 11 11
5 4 5 4 6 5 8 13 6 11 24 17 14 21 28 36 19 4 13 16 14 18 19 21 24 25 24 23 24 23 21 20 22 24 23 22 22 24 25 26 27 27 27 28 29 29 30 30 32 28 21 28 43 50 52 56 56 55 51 45 43 42 44 48 49 50 52 51 53 57 57 57 58 57 57 65 76 87 92 97 101 100 100 100 91 80 62 39 29 29 30 28 20 15 12 11 12
8 7 7 7 8 8 11 14 10 16 22 14 14 17 25 41 28 7 11 13 13 19 20 20 24 26 25 25 25 25 25 25 25 25 24 24 24 24 25 26 27 29 29 30 30 30 32 33 34 31 23 22 34 46 51 55 55 52 49 45 43 44 48 54 58 60 60 60 60 60 58 56 56 58 63 70 77 86 95 99 100 99 100 100 91 78 58 38 31 31 29 27 20 14 13 12 12
10 10 9 19 32 28 25 31 27 25 22 12 15 22 28 34 22 10 12 11 15 22 21 21 26 30 30 30 29 28 30 29 28 29 28 27 27 26 27 27 28 30 31 31 32 32 35 38 37 33 27 20 27 43 52 56 54 49 46 46 44 44 48 55 60 62 61 62 64 61 59 61 62 65 69 74 79 88 97 100 100 100 100 100 91 75 55 38 31 28 28 28 21 15 13 14 13
15 14 14 31 50 45 45 53 43 32 24 13 19 33 35 26 18 15 13 12 20 28 29 32 37 40 38 37 37 36 36 35 34 34 34 32 30 29 29 28 29 31 32 33 35 38 41 43 42 37 31 23 25 42 56 57 49 40 38 40 42 41 45 53 59 60 60 61 63 63 63 67 69 71 72 74 79 87 94 98 99 100 101 100 91 75 55 37 28 28 31 30 23 17 15 14 14
18 17 19 33 42 39 44 51 41 33 31 26 27 36 34 23 18 20 19 21 29 34 37 41 42 42 38 39 43 42 39 35 30 30 35 39 37 35 35 35 37 38 40 43 45 49 51 51 50 44 39 33 27 35 54 60 50 41 40 42 45 43 40 48 59 61 59 60 64 65 67 71 72 72 74 75 78 86 95 99 99 99 101 100 92 77 56 36 27 29 33 33 27 22 19 16 15
19 16 22 33 33 31 38 41 35 37 47 48 39 30 27 22 21 26 27 28 32 35 36 36 37 39 39 43 46 44 42 36 28 27 33 41 46 52 54 54 56 56 56 58 59 61 62 60 58 53 48 44 33 29 45 60 61 58 57 57 58 52 41 41 56 65 63 61 65 67 69 73 73 71 71 72 77 87 96 99 99 100 100 100 95 80 58 36 28 32 35 35 32 27 23 18 15
19 19 21 25 25 31 44 47 41 46 59 57 39 30 30 26 30 37 33 32 37 39 41 42 47 50 49 51 51 48 46 40 34 33 34 40 53 66 68 65 65 65 65 66 64 64 64 62 60 57 53 50 40 33 41 57 64 65 65 63 63 61 51 41 47 63 69 67 66 69 72 72 69 66 66 72 82 92 98 100 99 100 99 100 98 86 64 40 30 36 38 35 34 32 27 20 16
17 19 19 23 27 33 47 56 54 60 68 55 35 33 38 40 51 55 41 39 43 46 56 63 64 63 61 61 61 59 57 49 41 38 37 45 62 74 73 68 67 67 67 69 67 69 72 68 64 62 60 54 44 37 41 52 60 63 64 63 61 61 61 53 45 50 63 71 72 71 72 73 71 68 66 73 85 94 98 100 100 99 99 100 100 92 72 47 38 43 41 34 34 35 32 24 18
16 18 18 25 35 36 41 52 56 60 66 59 41 35 44 59 76 78 64 63 63 62 71 75 73 75 76 75 74 74 74 68 63 60 57 63 74 77 74 71 74 75 72 68 64 66 72 72 67 64 63 59 50 43 42 47 55 62 64 64 63 60 60 61 55 47 48 59 71 76 75 75 76 77 75 75 83 94 99 100 100 100 99 99 101 96 79 57 52 53 42 34 35 37 37 31 20
17 19 19 25 35 37 38 41 47 53 61 66 55 43 52 72 85 87 81 81 83 80 80 80 78 80 80 79 80 81 81 81 82 84 83 83 83 80 82 86 89 90 87 82 75 69 71 74 72 68 65 63 60 54 52 53 58 64 67 66 66 65 60 60 61 57 48 43 51 66 76 80 80 82 84 82 84 92 99 100 100 100 100 100 100 98 86 71 67 60 42 33 36 38 41 36 23
18 20 20 23 28 30 33 35 37 44 55 69 69 56 61 78 86 86 82 81 83 81 78 78 77 75 75 76 76 75 74 74 74 77 81 85 85 85 92 98 99 98 97 95 92 86 80 75 73 74 71 68 68 64 62 62 63 66 69 67 67 68 66 62 58 59 58 49 40 43 57 73 83 86 88 90 91 94 96 99 101 99 100 100 100 99 92 83 76 61 41 34 36 39 44 41 28
21 21 20 21 25 28 41 47 38 35 46 61 65 59 64 81 86 84 82 80 80 75 71 71 69 68 68 66 65 65 63 60 58 58 61 66 71 75 81 87 93 98 99 98 97 93 86 81 79 81 78 73 72 70 67 67 67 68 70 69 69 68 68 67 61 56 58 58 51 41 37 47 64 80 91 96 97 95 94 97 99 100 100 99 100 100 96 89 79 61 44 36 36 39 47 47 36
Wind_Speed
21 20 20 19 20 21 20 18 16 17 19 23 26 25 24 22 22 22 21 21 22 23 23 24 24 23 24 25 26 28 28 28 26 25 26 24 21 19 18 17 17 16 15 15 16 17 17 17 18 19 21 22 22 21 20 19 18 18 18 17 17 16 16 16 16 16 16 16 16 17 17 16 16 16 16 17 17 18 19 19 19 19 19 20 20 20 21 22 22 23 23 24 25 25 25 26 26
20 20 20 19 20 20 20 19 17 18 20 25 28 27 26 24 23 22 20 21 23 25 24 24 24 24 24 25 27 28 28 27 26 26 25 23 19 17 16 16 15 15 15 16 17 16 16 17 18 20 21 20 19 18 17 17 17 17 17 17 17 17 16 16 16 16 17 17 16 17 17 16 16 16 17 17 18 18 19 19 19 19 19 19 20 20 21 22 22 23 23 23 23 24 24 25 25
19 20 20 19 20 21 21 19 20 20 20 27 31 27 26 25 23 22 20 20 21 22 23 23 23 25 26 28 29 29 28 26 25 24 23 20 17 16 15 14 14 14 15 15 16 16 16 17 19 20 19 17 16 15 15 16 16 17 17 17 17 17 17 17 17 17 17 17 17 17 17 16 16 17 17 17 18 18 19 19 19 19 19 19 20 21 22 22 22 22 22 22 23 23 24 24 24
20 20 21 21 21 21 21 21 23 22 23 28 29 26 24 23 22 21 20 20 20 19 20 22 24 27 29 30 30 28 26 24 23 22 20 18 16 15 14 13 13 13 14 15 15 16 17 18 19 17 15 15 14 14 14 15 16 16 16 17 17 18 17 17 17 17 17 17 17 17 17 16 16 17 17 17 18 18 19 19 19 19 19 20 21 22 22 22 22 22 22 22 22 23 23 24 24
21 21 22 22 21 21 22 22 24 26 29 28 27 26 22 21 21 20 20 22 23 23 24 26 29 31 31 30 28 27 24 22 21 19 18 17 16 15 14 13 12 13 13 14 15 15 17 17 16 15 14 14 14 13 14 14 15 15 16 16 17 17 18 18 17 17 17 17 17 17 17 17 17 17 17 17 18 18 18 18 19 19 20 21 21 22 23 23 22 22 22 22 23 23 23 24 24
21 22 22 22 22 21 22 23 24 28 31 27 27 27 22 21 19 20 21 23 25 26 28 30 31 31 31 30 27 25 22 21 19 17 17 17 17 16 14 12 11 12 13 14 14 15 16 15 14 13 13 13 13 13 13 14 14 15 15 15 16 17 17 18 17 17 16 16 16 16 17 17 17 17 17 17 18 18 18 18 19 20 21 21 22 23 23 23 22 22 23 23 23 24 24 24 24
19 20 20 21 21 21 21 24 26 27 27 24 25 24 20 20 20 21 22 24 26 27 29 30 30 30 30 28 26 23 20 18 17 16 17 18 17 15 13 11 11 12 13 14 14 15 15 14 13 13 13 13 13 13 14 14 14 14 15 15 15 16 17 17 17 17 16 16 16 16 17 17 17 16 17 17 17 18 18 19 19 20 21 21 22 23 23 23 23 23 23 23 24 24 24 25 25
18 18 19 20 20 20 22 25 26 26 25 21 21 20 19 21 23 24 24 26 27 28 30 30 30 29 28 26 24 22 19 17 16 17 18 18 16 13 12 11 10 11 13 14 14 14 14 13 13 13 14 14 14 14 14 15 15 15 15 15 15 15 16 16 17 17 16 16 16 16 16 16 16 16 16 17 17 18 18 19 20 21 21 22 23 24 24 24 24 24 24 24 25 25 25 26 26
18 16 17 19 18 20 22 25 25 25 23 19 18 17 19 22 24 26 27 28 28 30 31 30 28 28 27 24 22 21 19 17 16 17 17 17 14 12 11 10 10 12 13 14 14 14 13 13 13 13 14 14 14 15 15 16 16 16 16 16 15 15 15 16 17 17 17 16 16 16 16 16 16 16 16 17 17 18 19 20 21 22 22 23 24 25 25 25 24 24 25 25 26 26 27 27 28
18 14 13 16 17 19 22 23 22 20 17 17 17 17 19 20 22 24 26 27 29 30 29 27 26 26 25 22 21 20 18 17 15 16 16 15 13 12 11 10 10 11 13 14 13 13 13 13 13 14 15 15 15 16 16 17 17 18 18 17 17 16 16 16 17 17 17 17 17 16 16 16 16 16 17 17 18 19 20 21 22 23 23 24 25 26 26 25 25 26 26 26 27 28 29 29 30
16 12 11 14 16 18 20 20 17 14 15 19 20 19 20 20 22 23 25 26 26 26 25 24 25 23 23 22 21 19 18 16 14 15 15 14 12 12 11 10 10 10 12 13 13 12 12 13 13 15 15 16 17 17 17 18 19 20 20 20 20 19 18 17 17 18 18 18 18 18 18 17 17 17 18 18 19 20 21 22 23 24 25 26 26 27 27 27 27 27 27 28 29 30 30 31 31
14 12 11 14 16 16 17 18 17 15 18 21 20 20 21 22 24 25 25 25 24 24 23 22 23 23 23 23 20 19 17 14 13 14 14 13 12 13 11 10 10 10 12 13 13 12 12 13 14 15 16 17 18 18 19 19 20 21 21 22 22 22 21 20 19 19 19 19 19 20 20 20 20 20 19 20 21 21 22 23 24 25 26 27 27 28 28 28 29 29 29 30 30 31 32 32 32
13 12 12 15 16 15 16 18 18 18 21 20 19 20 21 22 23 23 24 24 23 24 22 21 23 23 24 23 20 17 14 12 13 13 13 14 14 13 11 10 10 10 11 12 13 12 12 13 14 15 17 18 19 20 21 21 22 22 22 23 23 23 23 23 22 22 21 21 21 21 21 21 21 21 22 21 22 22 23 24 24 25 26 27 28 28 29 30 30 31 31 32 32 33 33 33 34
10 12 13 15 16 16 17 19 19 21 22 18 19 21 21 22 22 23 25 25 24 24 23 23 24 24 23 21 18 15 13 14 14 12 14 15 14 13 12 11 10 11 11 12 12 13 13 13 14 16 18 19 20 21 22 23 24 24 24 24 24 25 25 25 25 24 24 23 23 24 24 23 23 23 23 23 23 23 24 24 24 25 26 27 27 28 29 30 31 31 32 33 34 35 35 35 35
9 12 15 17 18 18 18 19 20 22 22 18 19 20 21 23 24 25 26 26 25 24 24 23 23 23 22 19 17 16 16 16 15 13 14 15 15 13 13 12 11 11 12 12 12 13 13 14 14 16 18 20 21 22 23 24 25 26 26 27 26 26 26 26 27 27 27 26 26 26 27 27 26 26 26 25 25 25 25 25 25 25 26 27 27 28 29 30 31 32 33 34 35 36 36 36 36
10 12 16 19 20 19 19 18 19 20 20 19 20 20 22 24 26 28 28 27 26 25 24 23 22 22 22 20 18 18 17 16 16 15 15 16 15 14 14 14 13 13 12 12 12 13 13 14 15 16 18 21 22 23 24 25 26 28 28 29 29 28 27 27 28 28 28 28 28 28 29 30 29 29 29 28 28 28 27 27 27 27 27 28 28 29 30 31 31 32 33 34 35 36 36 36 36
11 13 16 20 20 19 19 18 19 21 21 21 21 21 24 26 28 29 28 27 26 25 24 23 23 21 21 21 18 19 19 18 16 16 16 16 15 14 14 15 15 14 13 13 13 13 13 14 16 17 19 21 23 24 26 26 27 29 29 30 30 30 29 28 28 29 29 30 30 30 30 31 31 31 30 30 30 30 30 29 29 29 29 30 30 30 31 32 33 33 34 35 36 36 37 37 37
12 14 17 18 18 19 18 19 21 23 23 23 23 25 27 28 27 27 27 26 26 25 25 25 23 20 20 21 19 19 20 21 19 17 17 16 16 15 14 15 16 16 15 15 14 14 14 15 17 19 21 22 23 25 27 28 29 29 30 31 31 31 31 30 29 29 29 30 30 30 30 31 31 31 31 31 31 31 31 31 31 31 31 31 31 31 32 33 34 34 35 35 36 36 37 37 37
13 16 18 17 17 18 19 20 22 23 24 25 26 27 29 27 26 27 27 25 26 26 24 24 23 19 19 21 20 20 21 22 21 20 18 17 17 16 15 16 16 16 16 16 16 16 15 16 18 20 22 23 24 25 27 29 30 30 31 31 31 31 31 31 29 29 29 30 30 30 30 31 32 32 31 31 31 31 31 31 31 31 31 32 32 32 33 33 34 34 35 35 36 36 36 36 36
15 16 18 17 17 19 19 20 22 23 25 25 26 27 27 26 25 27 26 25 26 25 22 21 22 19 20 23 23 23 22 21 21 21 20 18 17 16 17 17 17 16 16 16 17 17 17 18 19 21 23 25 26 26 28 29 31 31 31 32 32 32 31 31 30 29 29 29 30 30 30 31 32 32 32 31 31 31 31 31 31 31 32 32 32 32 32 33 33 34 34 35 35 35 35 36 36
16 17 18 18 18 19 20 20 21 23 25 25 25 26 26 25 26 26 26 27 24 21 18 19 22 21 20 24 26 25 23 21 20 19 19 19 18 17 17 18 18 17 17 17 16 17 18 19 21 23 25 27 27 28 29 30 31 31 31 32 32 32 32 31 30 29 29 29 30 30 31 32 32 32 31 31 30 30 31 31 31 31 31 31 31 31 31 32 32 33 34 34 35 35 35 35 35
17 18 17 19 20 20 20 20 21 22 24 25 25 26 25 24 26 25 26 27 21 16 17 19 21 21 20 22 25 25 23 21 19 18 18 18 19 19 18 18 18 18 19 17 16 17 18 20 22 24 26 27 28 29 29 30 31 31 31 31 31 32 32 32 31 30 29 29 30 30 31 32 32 31 30 30 29 30 30 31 31 31 31 31 30 30 30 31 31 32 33 33 33 34 34 34 35
19 18 17 18 20 20 19 20 21 22 22 23 24 24 23 23 24 25 26 24 19 15 15 17 19 19 19 21 24 24 23 22 21 20 18 17 19 19 18 18 18 19 19 17 16 16 18 20 22 25 27 27 27 28 29 30 31 31 31 31 31 31 32 32 31 30 30 30 30 31 32 33 33 31 30 29 29 29 30 30 30 30 30 30 29 29 29 30 30 31 32 32 32 32 33 34 34
19 19 18 18 19 19 19 20 20 21 21 21 22 22 21 22 24 26 23 18 17 17 16 17 18 18 20 21 22 23 23 22 22 21 20 19 18 18 18 19 19 19 19 16 15 16 17 19 22 24 25 25 25 26 27 29 29 29 30 30 31 31 32 31 31 30 30 30 30 31 32 33 33 32 30 29 29 29 29 30 30 29 29 29 28 28 28 29 30 30 31 31 31 31 32 33 33
17 18 18 18 19 19 19 19 18 18 18 18 20 20 19 20 24 23 19 15 16 18 19 19 19 19 21 22 23 24 24 24 23 22 22 20 19 18 19 19 19 19 18 16 16 17 17 19 22 23 23 23 24 25 26 27 27 28 28 30 30 31 32 31 31 30 30 30 30 31 32 33 33 33 31 30 29 29 29 29 29 28 28 28 28 28 28 29 29 30 31 31 31 31 32 32 33
16 17 18 18 18 17 17 15 15 16 16 17 19 19 18 20 23 20 19 18 18 19 21 22 22 23 24 25 25 26 27 26 25 24 23 22 21 21 20 18 19 18 17 16 16 17 18 20 22 23 22 23 25 26 27 26 27 27 27 28 30 31 31 31 31 31 31 31 31 32 32 33 34 33 32 31 30 30 30 29 28 28 28 28 27 28 28 29 29 30 31 31 31 32 32 32 32
17 17 16 16 15 14 14 13 15 17 17 18 20 21 20 20 21 19 20 22 23 24 25 24 26 27 27 27 25 26 27 27 26 26 25 23 23 23 20 18 18 17 16 16 17 18 19 21 22 23 24 24 26 27 28 28 28 27 27 28 29 30 31 32 31 31 31 31 32 32 32 33 34 34 34 32 31 31 30 30 29 28 28 28 27 28 28 29 29 30 31 32 32 32 32 32 32
16 16 14 12 12 13 14 16 17 18 19 19 23 24 21 19 20 21 22 24 28 30 27 26 27 28 28 27 24 24 25 24 23 25 25 24 23 22 20 19 18 16 16 16 17 20 21 21 22 23 24 25 27 28 29 29 29 28 29 29 29 30 31 31 31 32 32 32 32 32 33 34 34 35 35 34 33 32 31 31 29 28 28 28 27 27 28 28 29 30 31 31 32 32 32 32 32
13 14 12 10 12 13 15 18 18 18 19 21 25 26 21 21 22 23 25 27 29 30 28 25 26 26 26 25 23 22 21 20 20 21 21 21 21 21 20 18 17 16 15 16 18 21 21 20 21 22 24 26 27 28 29 29 29 29 29 30 30 30 31 31 31 32 32 33 33 33 33 34 34 35 36 36 35 33 32 32 30 29 29 28 27 27 27 28 29 30 31 31 31 31 31 31 31
11 13 13 15 15 14 16 19 18 19 20 22 25 27 25 26 25 26 28 28 27 27 25 22 21 21 20 19 19 18 16 16 16 16 16 19 21 21 19 16 16 16 14 14 17 19 19 20 22 24 25 27 27 28 28 28 28 28 29 29 30 30 31 31 31 32 33 33 33 33 33 34 35 36 37 37 36 35 33 33 31 30 29 28 28 28 27 28 29 30 30 31 31 31 31 30 30
14 14 14 19 21 19 17 18 19 21 22 25 26 29 32 30 23 23 25 25 25 22 18 15 14 15 16 15 16 15 12 12 14 14 15 16 18 19 17 14 14 14 12 13 16 18 18 20 24 26 27 27 27 27 26 25 25 26 27 28 29 30 31 32 32 32 33 34 34 34 34 34 35 35 37 38 38 36 35 34 33 31 30 29 28 28 27 28 28 29 30 30 31 31 30 30 29
19 19 19 21 24 24 20 20 22 23 24 28 27 30 36 31 18 15 17 21 22 18 15 13 13 15 17 16 14 13 11 10 11 13 13 13 15 16 14 12 12 12 13 16 19 19 18 21 25 27 27 27 27 26 24 24 25 26 27 28 29 30 31 32 32 33 34 35 35 35 34 34 34 35 36 38 38 37 36 35 34 32 31 30 29 28 27 27 28 28 30 30 30 30 29 29 29
23 24 25 24 26 28 26 24 22 24 26 28 28 32 37 28 17 13 13 17 18 17 17 13 13 15 16 16 15 13 11 9 8 8 9 10 11 12 10 9 10 12 15 18 19 17 18 23 26 27 27 27 26 26 25 26 26 27 28 29 30 31 31 32 32 33 34 34 35 35 35 34 34 34 35 37 38 37 36 36 34 33 32 30 29 28 27 27 27 28 29 30 30 29 29 29 29
26 26 27 25 26 29 31 28 24 25 27 29 29 32 32 25 19 18 15 16 15 18 19 14 14 15 14 15 13 13 13 12 11 11 10 10 10 10 9 9 10 13 16 17 17 17 20 24 26 27 27 26 25 26 26 27 28 28 29 30 31 32 32 33 33 34 34 34 34 35 34 35 35 35 36 37 38 37 37 36 34 34 33 31 30 28 28 27 28 28 29 29 29 29 29 28 28
26 27 27 26 27 29 31 27 24 28 30 31 30 29 26 20 18 17 15 18 17 18 18 15 18 20 19 19 17 16 17 18 19 19 18 17 13 10 9 9 12 15 17 17 17 18 21 25 26 27 26 25 25 26 27 28 29 30 31 32 33 34 34 35 36 36 36 35 35 35 35 35 35 35 36 37 38 37 36 35 35 34 33 31 30 29 29 28 28 28 28 28 27 28 28 28 28
24 25 24 26 29 30 28 24 26 33 34 30 27 28 24 16 15 15 17 21 21 20 18 18 21 22 22 22 23 24 26 26 24 22 21 19 16 12 10 11 14 16 15 15 16 18 22 25 26 26 25 26 27 27 28 29 31 32 33 34 35 35 35 36 37 38 38 38 38 37 37 35 35 35 36 37 38 37 36 35 34 34 33 32 30 30 29 29 28 27 27 27 26 26 27 28 28
23 22 22 24 29 31 27 25 29 32 34 30 26 27 20 14 13 17 23 26 22 21 20 19 20 19 21 22 24 27 29 31 28 25 22 19 17 16 15 16 17 16 14 14 17 21 23 24 26 26 27 28 30 29 30 31 32 33 34 35 36 36 37 37 38 39 39 40 40 40 39 37 36 34 35 37 37 37 36 35 34 33 33 32 31 30 30 29 28 27 27 26 26 25 25 27 28
21 20 22 25 28 31 27 25 28 27 31 28 25 25 17 13 16 17 24 26 21 20 17 16 19 21 25 27 28 29 28 27 26 25 25 23 22 20 19 18 18 16 16 18 22 24 24 25 27 27 29 30 30 31 32 33 34 34 36 36 37 38 39 39 39 39 40 41 41 42 41 39 37 35 34 36 37 36 35 34 34 33 33 32 31 31 30 30 28 27 26 26 26 25 25 26 27
20 20 24 27 28 30 28 26 24 22 25 24 24 26 15 13 18 16 21 24 18 18 16 16 23 26 30 32 32 29 25 23 23 23 23 23 22 20 18 18 18 19 22 25 26 27 27 28 29 29 30 31 32 33 35 36 37 38 38 38 39 39 40 40 40 40 41 41 41 42 41 39 38 35 34 35 37 36 35 34 34 33 33 32 32 31 30 30 28 27 26 26 25 25 24 25 26
20 23 26 27 27 28 28 27 24 20 20 20 23 27 17 14 18 14 16 18 17 18 19 20 25 29 32 33 30 25 22 21 21 21 20 20 19 18 19 20 23 26 29 30 30 30 30 30 30 31 33 34 35 37 38 39 39 40 40 40 40 40 40 40 40 41 41 41 41 41 40 39 38 37 35 36 36 36 35 34 34 34 34 33 33 32 31 30 29 27 26 26 25 25 24 25 26
20 23 24 26 26 24 25 25 25 24 18 14 19 24 23 21 19 16 14 12 14 17 19 23 27 30 31 29 26 22 20 20 19 19 18 19 19 20 23 26 29 32 34 34 33 32 31 31 33 34 36 37 38 39 39 40 40 39 39 40 40 41 41 42 42 42 42 42 42 41 40 40 40 39 36 36 36 36 35 33 34 35 34 34 33 32 31 30 29 28 26 26 25 25 24 24 26
21 21 22 26 25 24 22 19 24 28 20 15 15 13 21 30 23 18 17 13 13 16 18 24 27 27 26 22 20 19 18 19 20 22 23 24 26 27 29 31 33 34 34 32 31 29 29 31 35 37 39 39 39 38 38 39 39 39 38 38 39 40 42 43 42 43 44 44 43 42 41 40 40 39 37 36 36 36 36 34 34 35 35 35 34 33 32 30 29 28 26 26 25 25 25 24 26
22 23 23 25 23 23 21 17 22 26 20 17 12 5 16 32 29 21 20 17 14 15 19 26 26 23 21 18 18 21 22 25 27 29 31 32 33 34 35 34 33 32 32 30 28 27 29 34 37 39 40 39 37 37 37 37 38 37 37 37 37 39 40 41 42 43 44 45 45 44 42 40 39 38 36 35 34 36 37 35 34 35 36 35 34 33 32 30 29 28 27 26 26 25 25 24 25
22 25 25 26 24 23 21 16 19 25 23 16 8 7 13 25 31 25 19 20 17 16 21 25 25 21 20 19 23 27 30 32 33 36 38 38 38 38 39 37 35 33 33 32 31 31 34 38 41 41 38 36 35 36 37 38 38 38 37 37 37 37 38 39 41 42 43 44 45 44 43 41 38 36 35 33 33 35 36 36 35 36 36 36 34 32 32 30 28 28 27 26 26 25 25 25 26
24 25 25 27 24 24 22 14 18 26 23 11 5 9 8 19 33 24 13 22 22 20 25 26 25 22 21 23 28 32 33 34 37 39 40 40 40 41 41 41 39 37 36 36 35 36 38 41 43 42 37 34 35 36 37 38 38 37 35 35 35 35 36 38 40 41 42 43 43 42 42 42 38 34 34 32 32 33 34 36 37 36 37 36 33 31 31 29 28 28 28 27 26 26 26 26 26
24 24 26 27 21 25 22 12 20 23 14 8 5 7 5 17 37 25 11 21 25 26 28 23 24 23 22 28 34 36 35 36 38 39 39 40 42 43 42 42 40 39 39 38 38 38 40 42 44 44 38 34 35 36 38 38 37 35 33 34 35 35 36 37 39 40 41 41 41 40 39 40 38 35 34 32 31 31 33 37 38 37 37 35 31 30 29 28 28 28 28 27 27 27 27 26 26
23 23 28 29 24 27 19 11 21 16 9 9 5 10 9 10 28 25 15 22 27 31 28 22 24 22 22 33 39 38 37 37 39 39 39 40 42 43 42 41 40 40 39 39 39 40 42 44 45 45 43 38 36 37 38 37 35 34 32 33 34 35 36 36 37 37 37 38 37 37 36 37 36 35 33 31 31 31 34 37 38 38 38 33 29 29 28 28 28 28 28 27 27 27 27 27 27
21 23 29 30 27 27 16 12 16 4 7 14 12 22 18 9 20 23 20 27 27 27 27 25 23 21 27 38 38 37 38 38 38 38 40 41 42 43 42 42 42 41 41 41 42 43 44 45 45 46 45 41 38 37 38 35 33 32 32 32 33 34 35 36 35 34 34 34 34 33 34 33 33 33 32 30 30 31 34 36 38 39 37 32 29 28 27 28 28 28 28 27 28 28 27 27 28
19 23 28 21 15 16 9 8 9 3 15 26 25 26 19 18 23 20 25 32 24 22 27 24 20 23 35 39 33 34 37 37 39 40 41 42 42 43 43 44 44 43 42 43 44 45 44 43 43 44 44 42 39 37 35 33 31 30 30 32 33 33 34 35 34 33 32 32 31 31 31 31 31 31 31 31 31 32 34 36 38 38 35 32 29 27 27 27 28 28 28 28 28 28 28 28 29
17 21 25 13 4 6 5 5 4 6 23 39 36 22 16 20 19 19 32 34 21 20 19 13 15 20 25 26 24 26 27 28 33 37 41 44 45 44 43 45 45 44 44 44 45 44 43 42 41 42 43 41 39 35 33 31 29 28 29 31 32 33 33 34 34 32 30 30 29 29 30 30 30 30 31 32 32 33 35 37 39 36 34 32 29 27 27 27 28 28 28 28 28 28 28 28 29
15 19 21 10 3 3 4 5 3 7 23 40 37 16 10 18 24 30 37 29 18 17 10 7 16 18 16 17 21 24 24 24 27 29 32 37 40 41 41 41 41 41 41 42 43 42 42 41 41 42 42 41 39 36 33 30 28 28 28 29 31 33 33 33 32 31 29 28 26 26 28 29 30 31 32 33 34 34 36 39 38 34 33 33 30 28 28 27 28 28 28 28 28 29 29 29 30
15 21 19 11 11 10 11 13 15 16 17 24 26 20 22 30 35 33 27 22 20 18 16 21 26 25 24 26 28 31 31 30 29 28 25 23 24 25 29 34 36 38 39 39 40 39 38 38 38 39 40 41 41 38 34 31 30 31 31 30 30 32 33 32 31 29 27 27 26 26 27 28 30 32 32 34 35 35 36 39 37 32 33 33 30 29 28 28 29 29 28 28 28 29 30 30 31
18 21 19 18 20 18 14 15 18 14 9 12 19 26 33 35 33 26 20 22 22 19 24 30 30 29 30 32 34 35 35 33 31 29 24 19 17 16 20 25 27 29 31 32 32 31 31 31 32 33 35 37 38 36 34 33 33 33 34 34 32 31 32 32 31 29 27 26 27 28 29 29 30 30 31 32 34 35 38 39 35 30 33 33 31 30 29 28 29 29 28 28 29 30 31 30 31
20 21 22 22 19 16 11 8 7 6 6 11 20 28 26 21 20 22 20 22 24 27 32 32 31 32 32 33 34 32 31 30 28 25 20 15 15 16 17 17 17 18 20 22 23 23 24 25 26 28 31 32 32 32 33 34 35 35 36 37 35 32 32 31 31 30 28 27 28 29 30 30 30 29 29 29 31 33 37 38 33 31 32 32 31 30 29 29 30 29 29 28 29 31 31 31 32
20 20 23 20 13 14 12 6 5 6 5 6 18 29 19 11 15 24 24 25 30 33 35 35 36 36 35 35 34 32 31 28 25 24 19 16 15 15 14 14 15 17 19 21 22 21 20 21 21 23 26 28 29 31 33 35 36 36 36 38 37 35 33 32 31 30 30 29 29 30 31 31 31 30 28 28 28 31 35 36 33 31 32 32 31 30 30 29 29 29 29 29 30 31 31 31 32
22 20 22 20 14 15 18 17 12 9 7 4 11 17 7 7 17 27 27 31 34 34 38 41 42 42 40 39 38 37 36 34 32 29 25 21 17 13 12 12 13 14 15 19 21 23 22 21 20 19 21 25 28 31 34 36 37 36 36 37 38 36 34 33 32 31 30 30 30 31 31 32 32 31 29 28 28 29 33 36 34 32 32 32 32 31 30 30 29 28 29 30 30 31 31 31 32
22 22 26 25 22 23 24 27 23 13 8 3 4 8 2 4 17 24 26 33 37 39 43 43 45 47 46 44 44 44 44 44 43 40 36 30 23 19 17 18 19 18 18 20 21 22 22 22 22 19 20 23 27 31 34 36 37 36 35 37 39 39 36 34 32 32 31 30 30 30 31 32 33 32 31 30 28 28 31 35 35 33 32 32 32 32 31 30 28 27 29 30 30 31 31 31 32
21 25 30 30 30 28 17 16 24 24 17 10 7 9 7 5 13 21 28 35 38 42 46 46 49 51 52 52 51 52 54 55 54 52 50 45 39 36 33 31 31 29 27 27 27 27 27 26 24 23 24 25 27 30 33 35 37 37 37 37 39 41 39 36 33 32 31 30 30 30 30 32 32 33 33 31 30 29 30 34 36 35 33 32 33 33 32 30 28 27 28 29 30 31 31 31 31
Wind_Direction
224 226 228 229 231 233 236 238 240 243 244 247 250 252 256 259 260 262 265 270 273 275 275 273 273 274 274 278 285 290 289 286 284 278 277 290 297 299 302 301 301 300 301 301 299 301 304 308 311 311 311 307 304 303 303 303 304 304 304 303 301 298 295 293 292 289 287 286 285 285 285 284 284 283 282 281 280 279 279 279 279 279 280 281 283 283 282 281 279 277 276 275 274 274 273 273 273
221 224 226 229 233 233 235 236 237 241 243 248 250 251 258 261 261 264 271 278 279 277 275 273 273 274 276 282 289 291 289 287 285 283 285 291 294 297 298 297 299 296 295 293 294 299 303 307 308 308 306 303 303 303 303 304 304 305 304 303 301 298 296 294 292 290 288 286 285 284 284 284 282 281 279 278 277 277 277 278 279 280 281 282 283 282 280 279 277 276 276 276 275 274 273 272 271
217 219 223 225 228 229 231 232 232 237 240 247 254 256 259 262 263 269 277 283 283 281 277 273 273 276 282 287 292 291 288 288 287 287 288 291 293 292 290 292 292 287 287 288 294 299 303 306 305 305 304 305 306 306 306 306 306 305 305 303 302 300 298 296 293 291 289 287 286 284 283 282 279 277 276 275 275 275 276 278 279 281 282 283 283 281 281 280 279 278 277 277 275 273 272 271 269
214 215 217 219 220 223 225 228 231 236 241 248 258 260 261 265 268 272 277 283 286 284 278 275 277 282 288 290 290 289 289 291 289 288 289 291 290 286 286 287 284 281 283 288 294 298 302 303 303 305 308 311 310 310 308 307 307 306 305 304 302 301 299 296 293 291 289 288 286 284 282 279 276 274 273 273 273 274 275 278 280 282 283 283 283 283 283 282 281 281 279 277 275 274 273 272 271
208 209 211 214 213 219 222 229 233 236 242 248 258 264 266 269 270 273 279 285 289 288 284 283 285 288 290 291 289 289 292 292 290 290 289 289 286 284 285 285 283 282 283 288 295 298 301 302 305 310 315 315 313 312 310 309 309 308 307 305 304 302 300 297 293 291 289 287 286 282 279 276 274 272 272 271 272 273 275 278 279 281 282 282 283 284 284 284 283 281 280 278 276 276 275 275 276
201 202 204 208 210 219 224 230 235 238 247 251 259 267 269 270 273 278 282 287 289 289 288 288 289 290 289 290 291 291 293 291 292 291 287 285 284 285 287 286 285 282 283 289 297 300 302 305 310 317 318 315 314 314 314 314 313 312 311 309 306 303 300 297 293 290 287 284 282 279 276 274 272 271 270 270 271 273 275 277 278 279 281 282 283 283 283 283 282 281 280 279 279 279 281 282 283
192 195 199 204 211 222 228 234 239 245 253 256 264 273 274 275 278 280 282 285 288 290 292 293 292 290 288 289 290 291 291 291 292 288 283 281 283 287 286 287 286 282 285 292 300 302 305 309 315 319 317 314 315 318 320 321 321 321 318 314 309 305 301 297 293 289 285 281 278 276 274 272 272 271 271 272 273 274 276 277 278 280 281 282 283 284 284 283 282 282 282 282 284 285 286 288 288
184 191 198 203 212 224 232 239 243 248 255 261 269 278 279 278 280 281 284 287 290 294 296 296 293 289 286 288 290 289 289 290 289 283 281 279 282 285 285 289 290 286 288 296 304 305 307 311 315 316 314 314 317 321 324 326 328 327 325 321 316 310 304 299 295 290 285 281 277 275 274 274 274 275 275 277 278 278 279 279 280 281 282 283 284 284 283 283 283 284 285 286 287 289 290 290 290
183 191 202 208 219 231 238 245 247 250 255 265 276 284 285 283 284 285 288 290 292 294 296 295 291 287 287 290 289 288 289 287 282 279 279 278 282 284 287 293 293 291 292 300 307 307 308 310 312 310 311 314 317 321 323 326 328 328 328 327 323 318 312 305 299 294 290 285 281 279 278 279 280 281 282 283 283 283 283 282 283 282 283 283 283 283 283 283 284 285 286 288 289 290 290 291 291
184 192 209 217 228 239 245 250 253 255 257 270 279 287 292 291 291 290 290 291 291 293 294 292 289 288 289 289 287 289 288 283 279 277 276 278 283 284 287 292 292 293 294 300 305 307 307 307 306 307 311 313 316 318 320 323 323 324 325 324 324 322 319 313 306 299 294 291 288 286 285 285 287 288 289 289 288 288 288 287 286 285 284 284 283 283 283 284 284 285 286 288 289 289 290 290 291
186 197 216 223 235 244 248 254 256 257 263 272 277 285 294 295 293 293 294 293 292 294 295 294 292 291 288 286 287 286 285 285 282 275 274 279 283 281 284 289 291 293 294 298 303 306 306 303 303 305 310 311 313 314 315 318 318 319 319 319 319 319 319 318 314 308 302 298 295 294 293 292 293 294 295 295 294 293 292 291 290 288 287 285 284 284 284 285 285 285 286 287 288 288 289 290 290
190 208 226 232 242 248 253 259 259 258 263 271 280 290 294 293 293 295 296 296 296 299 301 298 291 288 286 285 286 285 289 291 279 274 278 280 280 281 285 289 291 290 292 297 302 304 303 303 303 305 308 309 311 311 313 314 314 315 315 315 314 313 313 313 313 311 309 306 304 301 300 299 298 297 297 297 297 296 294 292 291 289 287 286 285 285 285 285 285 285 285 286 287 288 289 289 290
205 220 238 246 251 258 264 267 270 273 272 277 289 294 294 295 297 300 301 299 300 303 301 294 288 286 285 287 288 288 292 285 274 276 279 278 280 285 288 288 290 290 291 296 299 300 301 303 304 305 307 308 310 311 312 312 313 312 312 313 312 311 309 309 309 308 309 309 308 307 305 304 303 302 300 299 297 296 294 292 290 288 286 285 285 284 284 284 284 284 285 287 287 288 289 289 289
221 228 244 255 260 266 270 272 280 283 282 289 293 293 295 298 302 304 305 303 301 300 296 290 287 286 285 289 293 291 287 280 278 277 275 277 281 288 291 290 293 294 293 295 297 298 300 302 304 307 308 309 310 311 311 311 312 311 311 311 309 309 308 308 307 306 305 305 305 305 305 304 303 303 302 301 299 297 295 293 290 288 286 285 284 283 282 282 283 284 285 286 287 288 288 288 289
235 238 251 260 265 269 272 278 283 283 287 294 292 293 297 299 301 301 304 303 299 296 294 291 289 287 288 292 294 292 288 284 283 278 273 276 282 290 295 297 299 298 296 295 295 297 299 303 307 310 310 310 310 310 310 310 310 310 310 309 308 307 307 306 306 305 305 304 303 302 302 302 302 302 301 300 299 298 296 295 293 291 289 286 284 283 282 282 283 284 285 285 286 286 287 287 288
247 250 257 263 269 274 277 282 282 282 288 292 293 296 297 298 298 299 301 301 298 297 296 293 291 290 293 295 295 293 290 286 282 280 276 277 283 292 298 301 302 300 298 295 294 296 298 303 309 311 310 309 309 308 308 308 309 309 308 307 307 306 305 305 305 305 304 304 303 302 301 301 301 301 301 300 299 298 297 296 296 294 292 289 288 286 286 286 286 286 286 287 287 287 287 287 287
261 260 261 265 272 278 282 283 283 285 290 293 295 295 295 297 298 299 301 299 300 300 298 295 293 295 297 297 297 293 290 286 280 277 276 278 283 290 299 304 303 302 298 295 293 294 297 303 308 310 308 306 306 306 306 307 307 306 306 306 305 305 304 304 304 304 303 302 302 301 301 300 300 299 299 299 298 298 297 297 296 296 295 293 291 290 290 289 289 289 289 289 289 289 288 287 287
268 267 266 270 277 282 285 286 286 289 293 294 294 293 294 298 301 301 300 302 304 301 300 299 298 300 297 295 294 291 290 289 286 281 278 279 283 289 297 300 302 302 298 295 293 292 296 301 305 306 305 303 304 305 305 306 306 305 304 304 304 303 303 302 302 302 301 300 300 300 300 299 298 297 297 297 297 296 296 295 295 295 295 293 292 291 291 290 290 291 291 291 290 289 288 288 288
273 273 275 281 287 289 290 290 291 294 296 295 294 293 294 300 302 300 302 306 304 303 308 306 301 301 295 293 291 290 291 293 293 290 287 283 283 288 291 294 299 300 297 295 293 294 296 299 302 302 301 302 304 305 305 305 304 304 304 303 303 302 301 301 301 300 299 297 297 298 297 297 296 295 295 295 294 293 293 292 292 293 292 292 291 291 290 290 291 291 291 290 290 289 288 288 288
277 279 284 291 294 292 294 296 297 299 299 297 297 295 297 302 301 300 304 304 303 311 319 308 298 299 295 293 294 296 296 295 296 295 294 289 284 283 286 291 296 297 295 291 291 294 297 298 299 299 300 302 305 305 304 303 302 303 304 303 303 302 301 301 300 300 298 296 295 295 296 295 294 294 293 293 292 291 291 291 291 291 291 291 290 290 291 291 291 291 291 291 290 289 289 289 288
283 285 289 295 296 296 301 303 304 304 301 301 301 299 301 303 301 303 304 302 308 319 314 298 296 299 297 295 297 301 301 299 298 296 293 289 284 280 282 288 293 294 291 288 291 295 297 298 297 298 298 300 302 303 303 302 301 302 302 302 302 303 302 301 301 300 297 295 294 294 295 295 294 293 292 292 291 291 290 290 291 291 291 292 292 292 293 293 293 293 293 292 292 291 290 289 289
290 291 295 299 301 303 307 307 306 303 301 303 303 302 303 304 304 306 303 305 315 316 302 297 299 303 302 296 297 301 304 304 300 296 292 287 283 280 280 283 288 290 289 290 293 295 297 297 297 297 298 298 300 301 301 300 300 301 301 301 301 302 303 302 301 300 297 296 295 295 295 295 294 292 292 292 292 291 290 291 291 292 292 293 294 294 295 295 295 295 294 294 293 292 291 290 290
294 298 303 304 304 307 309 308 304 301 300 302 303 303 306 309 308 307 309 315 319 313 307 305 304 305 301 294 295 299 303 303 301 300 297 289 283 282 281 279 281 285 288 293 294 293 295 296 297 298 299 300 301 300 300 300 301 302 301 300 301 302 301 301 301 298 296 296 295 295 295 295 294 293 293 293 292 291 291 291 291 292 293 294 295 296 296 296 297 297 296 295 294 292 290 289 289
301 307 310 309 308 308 308 305 303 302 302 303 303 304 310 312 308 312 322 326 318 314 311 309 307 304 301 299 300 301 301 301 301 301 298 293 289 284 280 277 279 283 288 293 293 291 293 295 296 298 300 301 300 300 300 302 303 303 302 301 301 301 300 300 299 296 295 295 295 295 294 294 294 294 295 294 293 292 292 292 292 293 293 295 296 297 298 299 299 299 298 296 294 292 290 289 289
306 310 311 313 311 309 308 308 308 306 306 306 305 308 314 311 308 321 341 335 318 315 315 314 311 305 305 308 308 306 304 304 305 304 301 296 291 283 280 281 282 284 289 291 289 290 293 295 297 300 302 302 301 301 302 304 305 304 304 303 301 299 300 299 297 295 295 294 294 293 293 293 294 294 296 296 295 294 293 293 293 294 295 296 298 300 301 302 301 301 299 298 295 293 292 291 291
311 309 310 312 309 312 313 315 316 311 315 314 309 313 317 312 311 329 348 339 327 323 322 320 313 308 308 308 307 307 306 306 307 308 306 299 292 288 288 287 284 286 288 286 287 290 293 295 300 304 305 307 307 307 308 308 307 307 306 304 301 299 298 297 296 295 295 294 293 293 293 293 293 294 296 297 297 296 295 294 294 294 295 298 300 301 302 302 302 301 300 299 297 295 294 293 293
312 307 310 310 310 323 320 321 324 318 324 321 315 317 318 317 315 328 340 334 327 323 320 318 312 309 307 304 302 301 300 302 304 305 304 299 295 295 294 287 283 285 283 282 288 290 294 299 303 307 309 311 311 310 310 310 310 309 308 305 303 300 297 296 296 295 295 294 293 292 293 293 293 295 296 297 297 297 296 294 294 295 295 298 299 300 301 301 301 301 300 299 297 296 294 293 292
308 304 313 309 314 332 325 326 328 323 327 324 319 317 320 326 324 330 332 325 323 319 315 312 308 306 303 300 297 295 295 300 302 301 303 304 302 297 292 284 280 278 277 280 286 290 296 302 306 310 312 312 310 310 309 309 310 309 308 306 304 301 297 296 295 295 295 294 293 292 292 293 294 295 296 297 297 297 296 294 294 294 295 296 298 299 299 300 300 300 300 299 297 296 294 292 291
310 308 322 321 323 339 334 332 331 329 331 329 324 320 327 338 335 338 333 324 322 318 314 310 305 302 301 299 296 292 294 299 301 302 306 311 311 303 293 285 275 268 271 277 282 291 299 305 311 314 314 313 311 309 308 308 309 308 306 306 304 301 298 296 295 295 294 293 293 292 292 292 294 295 296 297 297 297 297 294 293 293 293 295 296 297 298 299 300 300 300 299 298 296 294 292 291
329 322 333 335 336 352 347 337 335 338 336 336 331 321 332 346 342 343 338 329 324 318 317 314 309 310 312 310 302 297 297 300 303 307 312 316 318 313 302 291 278 268 267 273 284 296 304 309 313 314 314 314 312 310 308 308 307 306 306 305 304 301 298 296 294 294 293 293 292 291 292 293 294 295 296 296 296 297 297 294 293 292 292 293 294 295 296 298 299 300 300 300 298 296 294 293 292
351 344 347 344 342 351 356 345 336 339 338 341 336 318 331 350 346 340 339 336 333 331 337 336 332 339 338 326 310 306 307 307 309 312 315 315 317 315 310 304 291 279 272 279 296 307 311 311 311 313 315 315 313 312 311 311 309 308 307 306 305 303 300 298 296 294 293 292 292 292 293 293 294 295 295 296 296 297 297 295 294 292 292 292 293 293 295 297 298 299 300 299 298 297 295 294 293
0 355 356 354 347 348 358 355 339 337 338 340 336 319 331 354 358 344 340 338 342 349 359 353 345 346 342 331 317 311 308 312 318 320 319 317 314 311 310 308 293 281 281 290 303 310 308 306 309 314 315 314 313 313 313 313 312 310 308 307 305 304 302 300 299 296 294 293 293 293 294 294 295 295 296 296 296 297 297 297 296 293 292 292 292 292 294 295 297 298 299 299 298 296 295 294 294
2 358 356 356 353 348 351 353 343 338 335 337 336 324 333 357 15 15 1 343 346 352 353 346 337 341 343 336 327 321 317 319 326 322 318 310 302 300 300 298 283 279 286 293 302 304 298 301 311 314 313 312 311 310 311 311 310 308 307 306 305 304 302 301 300 297 296 295 294 294 294 295 294 295 297 296 296 298 298 298 298 294 293 292 292 292 293 294 296 298 298 299 298 296 295 294 295
357 356 354 352 352 348 345 346 343 340 335 336 336 328 337 360 15 21 17 358 349 345 345 340 332 340 345 339 332 328 323 323 326 323 317 307 292 280 280 281 278 281 284 290 295 291 292 302 311 311 308 309 307 306 307 307 307 306 306 305 304 304 303 303 300 298 298 297 297 297 297 296 295 296 296 296 297 298 298 299 299 296 293 292 292 292 292 294 296 298 298 299 298 296 296 295 296
353 352 350 349 347 345 345 343 342 343 339 340 339 334 344 4 15 17 13 4 352 342 341 331 326 331 335 341 346 344 339 336 333 329 325 318 302 275 264 270 276 280 278 278 279 280 294 306 308 304 304 304 302 302 302 303 304 304 305 304 303 303 303 302 300 299 299 298 298 298 299 298 297 296 295 296 298 299 299 300 299 297 294 293 292 292 292 294 296 297 298 298 297 296 296 296 296
352 349 347 346 342 343 348 345 346 345 339 344 345 339 350 9 13 7 357 358 355 346 338 326 324 327 331 341 346 347 346 343 338 331 323 314 300 280 263 262 268 268 262 261 270 287 302 304 300 298 299 299 298 297 298 301 303 304 304 302 301 300 298 297 297 297 297 297 296 295 296 298 299 297 294 294 296 299 300 299 299 297 294 293 292 292 291 293 295 296 297 297 296 295 295 296 297
354 349 345 347 343 344 351 350 353 348 338 346 347 342 3 20 358 353 353 353 352 345 337 330 332 334 338 341 340 338 337 338 338 332 324 313 300 288 274 262 256 251 250 264 284 299 301 295 294 296 296 295 296 298 300 302 303 303 300 297 297 295 293 293 293 294 294 294 293 292 292 293 296 296 291 290 292 296 299 299 298 297 294 292 291 291 290 291 293 295 296 296 295 294 294 295 297
357 354 348 353 351 347 352 354 357 352 338 340 342 344 13 23 352 345 346 346 343 342 340 338 342 343 345 343 340 338 335 336 337 332 325 318 310 299 286 269 257 254 264 280 290 296 295 294 297 296 294 295 297 300 301 301 302 300 297 295 293 291 290 290 290 291 291 292 292 291 290 288 290 292 288 286 288 292 297 298 297 296 294 291 290 290 289 289 291 293 295 295 294 293 293 295 297
1 2 356 358 357 349 350 354 358 354 339 336 340 344 360 11 358 347 342 342 339 339 339 340 343 346 347 346 346 344 339 334 331 327 321 314 308 297 285 272 266 271 278 285 290 295 299 300 300 297 295 297 298 299 298 298 299 298 297 295 292 290 288 287 288 289 290 291 292 289 287 284 283 284 282 282 284 287 292 296 297 296 295 292 290 289 288 287 289 291 294 293 292 291 292 295 298
7 6 2 358 357 351 345 346 353 354 345 336 336 342 346 359 3 356 347 343 334 332 332 338 344 347 346 344 345 342 332 327 322 320 314 302 294 286 283 281 283 286 288 291 296 301 304 303 301 299 297 297 296 296 295 296 296 296 295 293 291 289 288 287 286 287 290 291 290 288 285 281 278 278 278 280 282 282 286 292 296 296 295 292 290 289 287 286 287 290 292 292 291 290 292 295 298
11 6 3 356 353 349 338 335 343 349 353 345 336 340 342 351 5 2 353 345 333 331 329 337 344 343 341 339 338 334 327 324 319 315 310 303 299 295 296 296 296 295 294 296 299 302 304 304 303 300 298 297 297 297 297 297 297 296 294 292 291 291 289 288 287 288 289 288 288 288 286 281 277 275 277 279 279 278 281 287 293 296 295 292 290 288 286 284 284 288 290 290 289 289 292 295 299
7 4 1 355 349 346 338 330 337 343 351 353 345 345 335 340 359 3 351 348 338 333 331 338 341 336 334 332 328 328 326 326 324 319 317 314 312 308 307 306 305 302 299 298 299 301 304 306 305 303 301 301 301 300 298 297 298 297 296 294 293 292 291 291 291 290 288 286 286 287 286 284 280 277 275 276 276 275 277 282 289 294 293 291 289 286 284 282 282 286 288 288 288 288 291 295 299
1 357 355 354 347 344 339 327 334 339 339 345 348 357 325 329 348 357 344 344 340 335 338 338 334 328 328 329 329 331 332 331 330 328 325 322 319 317 315 314 312 309 304 299 297 298 303 306 309 308 304 303 301 298 297 297 297 298 298 298 298 296 295 295 294 292 288 287 285 284 285 285 282 278 274 273 273 272 273 277 284 289 289 289 286 284 283 280 280 284 285 286 287 288 291 294 297
355 353 352 351 344 343 340 323 332 335 328 334 337 340 323 315 335 349 337 340 340 329 336 336 328 323 324 329 333 332 331 330 331 331 328 325 323 321 320 318 314 310 306 300 295 294 299 305 311 312 306 300 297 295 295 295 296 297 298 301 302 301 300 298 296 293 290 288 285 283 283 281 280 278 274 270 268 268 270 273 278 283 285 285 283 282 281 279 279 281 283 284 285 287 289 292 294
351 352 350 348 342 341 340 317 327 334 327 330 317 333 333 302 324 345 336 335 340 330 333 335 326 319 320 331 335 333 331 331 332 331 328 325 324 322 320 318 314 309 306 302 297 296 298 302 310 314 307 297 294 294 295 297 298 299 301 303 306 305 304 301 297 294 292 289 285 283 281 279 278 277 271 266 262 262 266 270 272 277 281 281 280 281 279 277 277 279 282 283 284 286 287 290 292
350 351 345 345 342 338 339 319 330 336 317 312 314 334 356 302 318 337 342 334 339 333 330 331 325 315 318 335 336 332 331 331 331 330 328 327 325 322 319 316 311 306 303 299 296 296 296 301 309 314 309 298 295 298 300 303 304 304 305 307 309 310 309 305 300 297 294 290 286 283 281 279 277 274 269 264 260 259 264 267 269 273 277 277 277 278 277 276 275 277 280 282 283 284 285 288 290
349 349 343 344 344 340 339 321 333 339 300 314 324 320 338 306 314 331 343 338 340 334 328 326 321 308 317 335 334 331 331 330 329 329 329 328 325 322 317 311 306 301 298 293 292 292 294 300 308 314 313 304 300 303 305 308 310 308 307 309 312 314 313 310 306 302 298 292 286 283 282 279 276 275 270 264 260 260 262 265 266 270 275 275 274 275 274 274 273 275 279 280 282 282 284 287 290
349 349 347 346 345 344 341 328 340 350 287 316 313 315 321 271 299 329 345 341 341 335 329 328 319 308 322 333 335 337 337 332 330 330 329 328 324 320 314 307 302 297 293 290 290 292 297 304 310 313 315 310 305 306 309 313 314 311 309 310 314 316 316 314 311 307 302 295 288 284 283 280 277 274 270 266 263 261 261 263 265 269 273 273 270 271 271 271 270 273 277 279 280 281 284 287 289
349 348 352 353 349 347 344 329 338 255 288 309 311 315 308 278 297 330 343 341 344 337 333 334 327 324 330 332 333 340 339 333 331 330 329 329 326 320 312 307 303 296 293 292 294 298 303 310 313 314 315 313 310 309 311 314 315 313 311 311 314 316 316 315 313 310 305 298 291 286 283 281 277 274 272 270 265 260 258 259 262 266 272 271 267 268 269 268 268 270 275 278 279 281 283 286 288
346 348 353 353 356 356 325 296 315 283 298 308 312 310 296 294 308 327 332 336 343 340 342 351 339 332 335 334 328 328 330 332 332 331 332 331 324 315 309 306 302 297 296 297 300 305 310 313 316 315 316 316 314 311 311 314 316 314 313 312 313 315 316 315 314 311 306 300 294 287 284 281 279 277 276 273 267 262 258 257 259 265 270 268 265 265 266 265 266 268 273 277 279 281 282 284 286
340 345 345 332 328 341 276 271 278 283 297 304 308 304 285 303 312 318 325 329 323 319 322 317 315 316 321 322 317 316 320 325 326 331 337 330 317 308 305 305 304 303 305 308 312 315 316 317 317 316 316 317 317 313 311 312 314 314 313 314 315 315 315 315 314 312 307 301 295 290 286 284 284 283 281 277 272 266 262 257 257 263 268 266 263 263 264 264 264 266 271 276 278 280 281 282 284
336 338 337 322 322 304 271 273 275 279 291 297 300 295 290 301 312 320 323 312 300 293 287 295 304 308 311 316 320 324 325 324 322 324 328 319 309 311 314 315 316 317 317 319 320 321 321 320 319 318 317 317 316 313 310 308 308 309 309 310 314 317 317 315 313 312 308 300 295 291 289 288 288 288 285 281 275 268 263 258 257 262 267 266 263 263 264 263 263 264 269 274 278 279 279 281 283
333 334 332 322 321 309 284 279 283 285 284 285 289 292 299 309 319 324 312 295 296 301 306 312 314 315 317 323 328 330 329 328 324 321 318 304 293 304 318 318 319 320 320 321 320 319 319 317 315 317 317 316 313 311 309 306 303 305 306 306 309 314 316 315 312 310 306 299 293 291 290 291 292 292 289 285 278 271 265 259 256 260 267 266 263 263 263 263 263 263 268 273 277 279 279 282 283
332 332 330 324 320 315 297 277 300 309 277 285 291 296 314 332 325 319 307 298 308 320 326 329 327 327 331 335 337 338 336 333 325 316 309 292 281 291 300 295 293 297 301 308 312 313 316 314 311 313 315 315 313 312 312 309 303 303 305 304 305 308 312 314 313 309 304 298 293 290 290 292 294 295 293 289 282 276 271 263 257 259 266 266 263 262 262 263 263 264 267 271 276 279 280 282 284
333 329 328 325 313 308 304 283 300 305 279 293 294 300 327 17 353 345 344 334 330 329 334 339 339 341 344 343 343 344 344 342 337 330 320 303 293 295 294 284 280 280 277 276 279 282 291 298 302 306 308 309 310 311 312 309 305 303 302 302 303 305 307 309 311 310 306 300 295 292 290 291 292 293 293 291 285 280 274 268 261 260 266 266 263 260 260 262 264 264 266 270 274 279 282 283 285
336 331 329 326 309 300 302 294 286 276 273 294 297 302 337 47 1 358 357 352 351 346 344 347 348 347 346 344 344 342 342 343 343 344 339 325 307 298 301 304 306 304 295 287 278 271 269 271 279 290 296 299 301 304 304 304 303 302 301 301 302 304 306 306 307 307 307 303 298 294 292 291 290 290 291 288 284 281 277 271 264 261 266 268 264 260 259 260 262 263 264 268 273 278 281 284 285
336 330 329 328 318 312 308 299 294 282 265 257 290 295 278 31 359 357 352 353 357 352 350 349 347 345 342 340 339 337 336 335 333 333 333 329 318 309 307 306 310 313 311 310 302 290 282 275 274 281 293 297 295 296 298 299 300 300 299 300 301 303 305 305 305 303 304 304 302 298 295 292 290 289 288 284 280 279 277 274 267 261 265 269 267 262 259 259 260 262 263 266 271 276 280 283 285
334 328 329 330 321 315 308 296 300 296 282 272 274 282 275 294 334 346 347 349 351 349 349 346 343 342 340 337 335 333 331 330 329 327 326 324 320 316 312 308 308 307 306 310 311 308 306 300 292 295 302 298 291 291 293 295 297 298 297 298 299 301 302 304 305 303 301 301 301 301 299 295 292 290 286 282 279 277 275 274 269 262 262 268 269 264 260 258 258 259 262 265 269 274 278 282 284